Tracking 20942 objects as of 4-Jul-2020
HD Live streaming from Space Station
objects crossing your sky now

OV1-14

Track OV1-14 now!
10-day predictions
OV1-14 is classified as:


NORAD ID: 3174
Int'l Code: 1968-026B
Perigee: 575.4 km
Apogee: 9,851.2 km
Inclination: 100.0 °
Period: 206.8 minutes
Semi major axis: 11584 km
RCS: 0.7366 m2 (medium)
Launch date: April 6, 1968
Source: United States (US)
Launch site: AIR FORCE WESTERN TEST RANGE (AFWTR)
aabbcc
Your satellite tracking list
Your tracking list is empty




NASA's NSSDC Master Catalog

Two Line Element Set (TLE):
1  3174U 68026B   20185.64064703 +.00000129 +00000-0 +22171-3 0  9991
2  3174 100.0106 058.3718 4003572 113.3556 334.6220 06.96302517324910
Source of the keplerian elements: AFSPC